Bellefonte, PA

7:55 AM EST on January 18, 2017 (GMT -0500)
University Park

Weather History for KUNV - May, 2012

Change the Weather History Date:

Saturday, May 26, 2012

  Actual Average Record
Temperature  
Mean Temperature 74 °F -  
Max Temperature 82 °F 71 °F 89 °F (1932)
Min Temperature 66 °F 50 °F 36 °F (1988)
Cooling Degree Days 9    
Growing Degree Days 24 (Base 50)    
Moisture  
Dew Point 64 °F    
Average Humidity 84    
Maximum Humidity 94    
Minimum Humidity 58    
Precipitation  
Precipitation 0.00 in - - ()
Sea Level Pressure  
Sea Level Pressure 30.15 in    
Wind  
Wind Speed 4 mph (WSW)    
Max Wind Speed 12 mph    
Max Gust Speed 23 mph    
Visibility 8 miles    
Events Rain , Thunderstorm    
Averages and records for this station are not official NWS values.
T = Trace of Precipitation, MM = Missing Value Source: NWS Daily Summary

Daily Weather History Graph

Daily Weather History Graph

Search for Another Location

Airport or City:

Trip Planner

Search our weather history database for the weather conditions in past years. The results will help you decide how hot, cold, wet, or windy it might be!

Date:

Astronomy

May. 26, 2012 Rise Set
Actual Time 5:44 AM EDT 8:32 PM EDT
Civil Twilight 5:12 AM EDT 9:04 PM EDT
Nautical Twilight 4:32 AM EDT 9:45 PM EDT
Astronomical Twilight 3:45 AM EDT 10:32 PM EDT
Moon 10:45 AM EDT (5/26) 12:05 AM EDT (5/26)
Length of Visible Light 15h 52m
Length of Day
14h 47m
Waxing Crescent, 28% of the Moon is Illuminated
May 26
Waxing Crescent
May 28
First Quarter
Jun 4
Full
Jun 11
Last Quarter
Jun 19
New

Hourly Weather History & Observations

Time (EDT) Temp. Heat Index Dew Point Humidity Pressure Visibility Wind Dir Wind Speed Gust Speed Precip Events Conditions
12:15 AM 68.0 °F - 62.6 °F 83% 30.14 in 10.0 mi SW 5.8 mph - N/A   Clear
12:35 AM 69.8 °F - 62.6 °F 78% 30.14 in 10.0 mi WSW 5.8 mph - N/A   Clear
12:55 AM 69.8 °F - 62.6 °F 78% 30.14 in 10.0 mi West 3.5 mph - N/A   Clear
1:15 AM 69.8 °F - 62.6 °F 78% 30.13 in 10.0 mi Calm Calm - N/A   Clear
1:35 AM 68.0 °F - 62.6 °F 83% 30.13 in 10.0 mi Calm Calm - N/A   Clear
1:55 AM 69.8 °F - 62.6 °F 78% 30.13 in 10.0 mi West 3.5 mph - N/A   Clear
2:15 AM 68.0 °F - 62.6 °F 83% 30.13 in 10.0 mi WSW 4.6 mph - N/A   Clear
2:35 AM 68.0 °F - 62.6 °F 83% 30.13 in 10.0 mi WSW 4.6 mph - N/A   Clear
2:55 AM 66.2 °F - 62.6 °F 88% 30.13 in 10.0 mi WSW 4.6 mph - N/A   Clear
3:15 AM 68.0 °F - 62.6 °F 83% 30.13 in 10.0 mi SW 4.6 mph - N/A   Clear
3:35 AM 68.0 °F - 62.6 °F 83% 30.13 in 10.0 mi WSW 5.8 mph - N/A   Clear
3:55 AM 68.0 °F - 62.6 °F 83% 30.13 in 10.0 mi West 4.6 mph - N/A   Clear
4:15 AM 68.0 °F - 62.6 °F 83% 30.13 in 10.0 mi West 5.8 mph - N/A   Clear
4:35 AM 66.2 °F - 62.6 °F 88% 30.13 in 10.0 mi WSW 5.8 mph - N/A   Clear
4:55 AM 66.2 °F - 62.6 °F 88% 30.14 in 10.0 mi WSW 5.8 mph - N/A   Clear
5:15 AM 66.2 °F - 62.6 °F 88% 30.14 in 7.0 mi SSW 3.5 mph - N/A   Clear
5:35 AM 66.2 °F - 62.6 °F 88% 30.14 in 7.0 mi South 3.5 mph - N/A   Clear
5:53 AM 66.2 °F - 62.6 °F 88% 30.14 in 7.0 mi Calm Calm - N/A   Clear
6:53 AM 66.2 °F - 62.6 °F 88% 30.15 in 7.0 mi Calm Calm - N/A   Clear
7:53 AM 68.0 °F - 64.4 °F 88% 30.17 in 7.0 mi Calm Calm - N/A   Clear
8:53 AM 71.6 °F - 66.2 °F 83% 30.18 in 7.0 mi Calm Calm - N/A   Clear
9:53 AM 77.0 °F - 66.2 °F 69% 30.17 in 10.0 mi Calm Calm - N/A   Clear
11:53 AM 82.4 °F 84.6 °F 66.2 °F 58% 30.17 in 7.0 mi Calm Calm - N/A   Haze
12:53 PM 82.4 °F 84.6 °F 66.2 °F 58% 30.16 in 10.0 mi SSW 5.8 mph - N/A   Scattered Clouds
1:53 PM 77.0 °F - 69.8 °F 78% 30.13 in 7.0 mi South 5.8 mph - N/A Rain , Thunderstorm Light Thunderstorms and Rain
2:52 PM 69.8 °F - 64.4 °F 83% 30.16 in 7.0 mi North 11.5 mph 23.0 mph N/A Rain , Thunderstorm Thunderstorms and Rain
3:53 PM 69.8 °F - 66.2 °F 88% 30.15 in 10.0 mi South 5.8 mph - N/A Rain , Thunderstorm Thunderstorms and Rain
4:52 PM 71.6 °F - 64.4 °F 78% 30.15 in 10.0 mi Variable 3.5 mph - N/A Thunderstorm Mostly Cloudy
5:53 PM 73.4 °F - 66.2 °F 78% 30.16 in 7.0 mi WSW 5.8 mph - N/A   Haze
6:53 PM 73.4 °F - 66.2 °F 78% 30.15 in 10.0 mi Calm Calm - N/A   Clear
7:53 PM 71.6 °F - 66.2 °F 83% 30.16 in 10.0 mi Calm Calm - N/A   Clear
8:53 PM 69.8 °F - 66.2 °F 88% 30.16 in 10.0 mi Calm Calm - N/A   Clear
9:15 PM 69.8 °F - 66.2 °F 88% 30.15 in 7.0 mi Calm Calm - N/A   Clear
9:35 PM 69.8 °F - 66.2 °F 88% 30.15 in 10.0 mi West 4.6 mph - N/A   Clear
9:55 PM 68.0 °F - 66.2 °F 94% 30.17 in 5.0 mi Calm Calm - N/A   Clear
10:15 PM 68.0 °F - 66.2 °F 94% 30.17 in 3.0 mi Calm Calm - N/A   Mist
10:35 PM 68.0 °F - 66.2 °F 94% 30.17 in 7.0 mi WSW 4.6 mph - N/A   Clear
10:55 PM 68.0 °F - 66.2 °F 94% 30.17 in 5.0 mi Calm Calm - N/A   Clear
11:15 PM 68.0 °F - 64.4 °F 88% 30.16 in 5.0 mi Calm Calm - N/A   Scattered Clouds
11:35 PM 66.2 °F - 64.4 °F 94% 30.16 in 2.5 mi Calm Calm - N/A   Mostly Cloudy
11:55 PM 66.2 °F - 64.4 °F 94% 30.16 in 3.0 mi Calm Calm - N/A   Scattered Clouds